User: anonymous   Login
Location: Unspecified
(0.0000°N, 0.0000°E)
Time: 23:18:45
(UTC+00:00)
Language:

USA 162 - Orbit

View from above orbital plane
View from above orbital plane
View from above satellite
View from above satellite

Ground track
Ground track

The orbit data is extracted from the following two-line orbital elements,

1 26948U 01046A   18191.42422186 0.00000000  00000-0  00000-0 0    02
2 26948   9.8117  50.7331 0007199 193.9751 165.9380  1.00270000    09
Epoch (UTC): 10 July 2018 10:10:52
Eccentricity: 0.0007199
inclination: 9.8117°
perigee height: 35756 km
apogee height: 35817 km
right ascension of ascending node: 50.7331°
argument of perigee: 193.9751°
revolutions per day: 1.00270000
mean anomaly at epoch: 165.9380°
orbit number at epoch: 0

The dashed part of the orbit path shows where the satellite is in the earth's shadow,  

DLR